#datetime,building,power
2022-09-19T00:00:00,sdl,5.21
2022-09-19T00:01:00,sdl,5.27
2022-09-19T00:02:00,sdl,3.55
2022-09-19T00:03:00,sdl,3.63
2022-09-19T00:04:00,sdl,3.55
2022-09-19T00:05:00,sdl,3.15
2022-09-19T00:06:00,sdl,3.17
2022-09-19T00:07:00,sdl,3.24
2022-09-19T00:08:00,sdl,3.35
2022-09-19T00:09:00,sdl,3.55
2022-09-19T00:10:00,sdl,4.28
2022-09-19T00:11:00,sdl,4.25
2022-09-19T00:12:00,sdl,4.66
2022-09-19T00:13:00,sdl,4.81
2022-09-19T00:14:00,sdl,4.95
2022-09-19T00:15:00,sdl,4.96
2022-09-19T00:16:00,sdl,4.84
2022-09-19T00:17:00,sdl,4.90
2022-09-19T00:18:00,sdl,4.91
2022-09-19T00:19:00,sdl,3.24
2022-09-19T00:20:00,sdl,3.74
2022-09-19T00:21:00,sdl,4.20
2022-09-19T00:22:00,sdl,3.47
2022-09-19T00:23:00,sdl,3.37
2022-09-19T00:24:00,sdl,3.35
2022-09-19T00:25:00,sdl,3.38
2022-09-19T00:26:00,sdl,3.40
2022-09-19T00:27:00,sdl,3.00
2022-09-19T00:28:00,sdl,4.53
2022-09-19T00:29:00,sdl,4.29
2022-09-19T00:30:00,sdl,4.33
2022-09-19T00:31:00,sdl,4.55
2022-09-19T00:32:00,sdl,4.67
2022-09-19T00:33:00,sdl,4.73
2022-09-19T00:34:00,sdl,5.05
2022-09-19T00:35:00,sdl,4.95
2022-09-19T00:36:00,sdl,3.22
2022-09-19T00:37:00,sdl,3.04
2022-09-19T00:38:00,sdl,2.97
2022-09-19T00:39:00,sdl,3.06
2022-09-19T00:40:00,sdl,3.08
2022-09-19T00:41:00,sdl,3.11
2022-09-19T00:42:00,sdl,3.01
2022-09-19T00:43:00,sdl,3.11
2022-09-19T00:44:00,sdl,3.04
2022-09-19T00:45:00,sdl,4.57
2022-09-19T00:46:00,sdl,4.39
2022-09-19T00:47:00,sdl,4.85
2022-09-19T00:48:00,sdl,4.60
2022-09-19T00:49:00,sdl,4.77
2022-09-19T00:50:00,sdl,4.83
2022-09-19T00:51:00,sdl,4.78
2022-09-19T00:52:00,sdl,4.00
2022-09-19T00:53:00,sdl,3.52
2022-09-19T00:54:00,sdl,3.53
2022-09-19T00:55:00,sdl,3.44
2022-09-19T00:56:00,sdl,3.01
2022-09-19T00:57:00,sdl,5.43
2022-09-19T00:58:00,sdl,5.22
2022-09-19T00:59:00,sdl,5.29
2022-09-19T01:00:00,sdl,5.21
2022-09-19T01:01:00,sdl,6.77
2022-09-19T01:02:00,sdl,6.59
2022-09-19T01:03:00,sdl,6.71
2022-09-19T01:04:00,sdl,6.85
2022-09-19T01:05:00,sdl,4.62
2022-09-19T01:06:00,sdl,4.61
2022-09-19T01:07:00,sdl,4.62
2022-09-19T01:08:00,sdl,4.70
2022-09-19T01:09:00,sdl,3.42
2022-09-19T01:10:00,sdl,3.07
2022-09-19T01:11:00,sdl,2.99
2022-09-19T01:12:00,sdl,2.98
2022-09-19T01:13:00,sdl,2.78
2022-09-19T01:14:00,sdl,2.85
2022-09-19T01:15:00,sdl,3.40
2022-09-19T01:16:00,sdl,3.40
2022-09-19T01:17:00,sdl,3.53
2022-09-19T01:18:00,sdl,3.99
2022-09-19T01:19:00,sdl,4.73
2022-09-19T01:20:00,sdl,4.69
2022-09-19T01:21:00,sdl,4.95
2022-09-19T01:22:00,sdl,5.02
2022-09-19T01:23:00,sdl,5.12
2022-09-19T01:24:00,sdl,5.21
2022-09-19T01:25:00,sdl,5.20
2022-09-19T01:26:00,sdl,5.10
2022-09-19T01:27:00,sdl,3.40
2022-09-19T01:28:00,sdl,3.12
2022-09-19T01:29:00,sdl,3.57
2022-09-19T01:30:00,sdl,3.77
2022-09-19T01:31:00,sdl,3.48
2022-09-19T01:32:00,sdl,3.36
2022-09-19T01:33:00,sdl,3.37
2022-09-19T01:34:00,sdl,3.22
2022-09-19T01:35:00,sdl,3.27
2022-09-19T01:36:00,sdl,4.87
2022-09-19T01:37:00,sdl,4.74
2022-09-19T01:38:00,sdl,5.48
2022-09-19T01:39:00,sdl,5.24
2022-09-19T01:40:00,sdl,5.13
2022-09-19T01:41:00,sdl,5.21
2022-09-19T01:42:00,sdl,5.20
2022-09-19T01:43:00,sdl,5.13
2022-09-19T01:44:00,sdl,3.40
2022-09-19T01:45:00,sdl,3.52
2022-09-19T01:46:00,sdl,3.47
2022-09-19T01:47:00,sdl,3.41
2022-09-19T01:48:00,sdl,3.40
2022-09-19T01:49:00,sdl,3.30
2022-09-19T01:50:00,sdl,3.29
2022-09-19T01:51:00,sdl,3.20
2022-09-19T01:52:00,sdl,4.58
2022-09-19T01:53:00,sdl,4.03
2022-09-19T01:54:00,sdl,4.57
2022-09-19T01:55:00,sdl,4.82
2022-09-19T01:56:00,sdl,4.89
2022-09-19T01:57:00,sdl,5.10
2022-09-19T01:58:00,sdl,5.10
2022-09-19T01:59:00,sdl,5.65
2022-09-19T02:00:00,sdl,4.15
2022-09-19T02:01:00,sdl,4.86
2022-09-19T02:02:00,sdl,5.20
2022-09-19T02:03:00,sdl,5.55
2022-09-19T02:04:00,sdl,5.92
2022-09-19T02:05:00,sdl,6.54
2022-09-19T02:06:00,sdl,11.56
2022-09-19T02:07:00,sdl,11.05
2022-09-19T02:08:00,sdl,11.00
2022-09-19T02:09:00,sdl,12.05
2022-09-19T02:10:00,sdl,12.17
2022-09-19T02:11:00,sdl,12.81
2022-09-19T02:12:00,sdl,15.81
2022-09-19T02:13:00,sdl,16.00
2022-09-19T02:14:00,sdl,16.30
2022-09-19T02:15:00,sdl,15.58
2022-09-19T02:16:00,sdl,15.71
2022-09-19T02:17:00,sdl,15.38
2022-09-19T02:18:00,sdl,15.71
2022-09-19T02:19:00,sdl,16.03
2022-09-19T02:20:00,sdl,16.08
2022-09-19T02:21:00,sdl,16.25
2022-09-19T02:22:00,sdl,16.07
2022-09-19T02:23:00,sdl,16.08
2022-09-19T02:24:00,sdl,15.74
2022-09-19T02:25:00,sdl,15.69
2022-09-19T02:26:00,sdl,17.91
2022-09-19T02:27:00,sdl,17.00
2022-09-19T02:28:00,sdl,17.22
2022-09-19T02:29:00,sdl,15.02
2022-09-19T02:30:00,sdl,15.06
2022-09-19T02:31:00,sdl,14.79
2022-09-19T02:32:00,sdl,13.95
2022-09-19T02:33:00,sdl,14.38
2022-09-19T02:34:00,sdl,13.80
2022-09-19T02:35:00,sdl,13.78
2022-09-19T02:36:00,sdl,13.79
2022-09-19T02:37:00,sdl,13.67
2022-09-19T02:38:00,sdl,15.70
2022-09-19T02:39:00,sdl,14.92
2022-09-19T02:40:00,sdl,14.95
2022-09-19T02:41:00,sdl,12.87
2022-09-19T02:42:00,sdl,12.85
2022-09-19T02:43:00,sdl,12.69
2022-09-19T02:44:00,sdl,13.79
2022-09-19T02:45:00,sdl,13.60
2022-09-19T02:46:00,sdl,13.41
2022-09-19T02:47:00,sdl,13.67
2022-09-19T02:48:00,sdl,13.76
2022-09-19T02:49:00,sdl,14.76
2022-09-19T02:50:00,sdl,14.69
2022-09-19T02:51:00,sdl,14.75
2022-09-19T02:52:00,sdl,14.82
2022-09-19T02:53:00,sdl,12.56
2022-09-19T02:54:00,sdl,12.67
2022-09-19T02:55:00,sdl,12.58
2022-09-19T02:56:00,sdl,12.27
2022-09-19T02:57:00,sdl,12.14
2022-09-19T02:58:00,sdl,12.25
2022-09-19T02:59:00,sdl,12.14
2022-09-19T03:00:00,sdl,12.23
2022-09-19T03:01:00,sdl,12.66
2022-09-19T03:02:00,sdl,15.59
2022-09-19T03:03:00,sdl,15.49
2022-09-19T03:04:00,sdl,15.55
2022-09-19T03:05:00,sdl,13.67
2022-09-19T03:06:00,sdl,14.02
2022-09-19T03:07:00,sdl,14.09
2022-09-19T03:08:00,sdl,12.70
2022-09-19T03:09:00,sdl,12.75
2022-09-19T03:10:00,sdl,12.78
2022-09-19T03:11:00,sdl,12.67
2022-09-19T03:12:00,sdl,14.14
2022-09-19T03:13:00,sdl,13.65
2022-09-19T03:14:00,sdl,16.03
2022-09-19T03:15:00,sdl,15.90
2022-09-19T03:16:00,sdl,16.13
2022-09-19T03:17:00,sdl,13.85
2022-09-19T03:18:00,sdl,13.73
2022-09-19T03:19:00,sdl,12.93
2022-09-19T03:20:00,sdl,12.98
2022-09-19T03:21:00,sdl,12.99
2022-09-19T03:22:00,sdl,14.09
2022-09-19T03:23:00,sdl,14.10
2022-09-19T03:24:00,sdl,14.36
2022-09-19T03:25:00,sdl,16.17
2022-09-19T03:26:00,sdl,16.15
2022-09-19T03:27:00,sdl,16.24
2022-09-19T03:28:00,sdl,15.57
2022-09-19T03:29:00,sdl,13.29
2022-09-19T03:30:00,sdl,13.34
2022-09-19T03:31:00,sdl,12.96
2022-09-19T03:32:00,sdl,12.89
2022-09-19T03:33:00,sdl,13.34
2022-09-19T03:34:00,sdl,12.97
2022-09-19T03:35:00,sdl,13.32
2022-09-19T03:36:00,sdl,13.32
2022-09-19T03:37:00,sdl,13.09
2022-09-19T03:38:00,sdl,15.03
2022-09-19T03:39:00,sdl,14.98
2022-09-19T03:40:00,sdl,15.28
2022-09-19T03:41:00,sdl,14.10
2022-09-19T03:42:00,sdl,14.47
2022-09-19T03:43:00,sdl,14.06
2022-09-19T03:44:00,sdl,14.24
2022-09-19T03:45:00,sdl,14.69
2022-09-19T03:46:00,sdl,14.64
2022-09-19T03:47:00,sdl,13.70
2022-09-19T03:48:00,sdl,13.72
2022-09-19T03:49:00,sdl,13.41
2022-09-19T03:50:00,sdl,13.10
2022-09-19T03:51:00,sdl,13.21
2022-09-19T03:52:00,sdl,12.97
2022-09-19T03:53:00,sdl,15.19
2022-09-19T03:54:00,sdl,15.31
2022-09-19T03:55:00,sdl,15.42
2022-09-19T03:56:00,sdl,15.46
2022-09-19T03:57:00,sdl,13.17
2022-09-19T03:58:00,sdl,13.29
2022-09-19T03:59:00,sdl,12.88
2022-09-19T04:00:00,sdl,13.80
2022-09-19T04:01:00,sdl,13.79
2022-09-19T04:02:00,sdl,13.78
2022-09-19T04:03:00,sdl,13.76
2022-09-19T04:04:00,sdl,14.15
2022-09-19T04:05:00,sdl,14.33
2022-09-19T04:06:00,sdl,15.44
2022-09-19T04:07:00,sdl,14.96
2022-09-19T04:08:00,sdl,15.27
2022-09-19T04:09:00,sdl,12.93
2022-09-19T04:10:00,sdl,12.76
2022-09-19T04:11:00,sdl,12.73
2022-09-19T04:12:00,sdl,12.87
2022-09-19T04:13:00,sdl,12.84
2022-09-19T04:14:00,sdl,12.80
2022-09-19T04:15:00,sdl,12.67
2022-09-19T04:16:00,sdl,13.08
2022-09-19T04:17:00,sdl,14.92
2022-09-19T04:18:00,sdl,15.92
2022-09-19T04:19:00,sdl,16.03
2022-09-19T04:20:00,sdl,16.18
2022-09-19T04:21:00,sdl,13.93
2022-09-19T04:22:00,sdl,13.93
2022-09-19T04:23:00,sdl,13.99
2022-09-19T04:24:00,sdl,13.00
2022-09-19T04:25:00,sdl,12.88
2022-09-19T04:26:00,sdl,13.66
2022-09-19T04:27:00,sdl,13.00
2022-09-19T04:28:00,sdl,12.86
2022-09-19T04:29:00,sdl,12.82
2022-09-19T04:30:00,sdl,12.86
2022-09-19T04:31:00,sdl,12.82
2022-09-19T04:32:00,sdl,12.75
2022-09-19T04:33:00,sdl,15.11
2022-09-19T04:34:00,sdl,15.26
2022-09-19T04:35:00,sdl,15.26
2022-09-19T04:36:00,sdl,15.32
2022-09-19T04:37:00,sdl,13.88
2022-09-19T04:38:00,sdl,14.03
2022-09-19T04:39:00,sdl,14.62
2022-09-19T04:40:00,sdl,13.89
2022-09-19T04:41:00,sdl,13.98
2022-09-19T04:42:00,sdl,13.99
2022-09-19T04:43:00,sdl,12.90
2022-09-19T04:44:00,sdl,12.82
2022-09-19T04:45:00,sdl,12.88
2022-09-19T04:46:00,sdl,13.32
2022-09-19T04:47:00,sdl,12.95
2022-09-19T04:48:00,sdl,13.31
2022-09-19T04:49:00,sdl,15.07
2022-09-19T04:50:00,sdl,15.11
2022-09-19T04:51:00,sdl,15.05
2022-09-19T04:52:00,sdl,15.21
2022-09-19T04:53:00,sdl,13.08
2022-09-19T04:54:00,sdl,12.98
2022-09-19T04:55:00,sdl,14.00
2022-09-19T04:56:00,sdl,13.95
2022-09-19T04:57:00,sdl,16.10
2022-09-19T04:58:00,sdl,16.03
2022-09-19T04:59:00,sdl,16.06
2022-09-19T05:00:00,sdl,16.08
2022-09-19T05:01:00,sdl,15.19
2022-09-19T05:02:00,sdl,15.93
2022-09-19T05:03:00,sdl,15.15
2022-09-19T05:04:00,sdl,15.04
2022-09-19T05:05:00,sdl,17.61
2022-09-19T05:06:00,sdl,15.34
2022-09-19T05:07:00,sdl,15.05
2022-09-19T05:08:00,sdl,15.14
2022-09-19T05:09:00,sdl,12.96
2022-09-19T05:10:00,sdl,12.91
2022-09-19T05:11:00,sdl,13.03
2022-09-19T05:12:00,sdl,12.90
2022-09-19T05:13:00,sdl,13.74
2022-09-19T05:14:00,sdl,13.86
2022-09-19T05:15:00,sdl,13.79
2022-09-19T05:16:00,sdl,13.82
2022-09-19T05:17:00,sdl,14.19
2022-09-19T05:18:00,sdl,13.75
2022-09-19T05:19:00,sdl,12.91
2022-09-19T05:20:00,sdl,12.73
2022-09-19T05:21:00,sdl,15.10
2022-09-19T05:22:00,sdl,15.08
2022-09-19T05:23:00,sdl,15.16
2022-09-19T05:24:00,sdl,15.11
2022-09-19T05:25:00,sdl,12.83
2022-09-19T05:26:00,sdl,12.85
2022-09-19T05:27:00,sdl,12.78
2022-09-19T05:28:00,sdl,12.76
2022-09-19T05:29:00,sdl,12.87
2022-09-19T05:30:00,sdl,12.87
2022-09-19T05:31:00,sdl,12.93
2022-09-19T05:32:00,sdl,13.59
2022-09-19T05:33:00,sdl,14.11
2022-09-19T05:34:00,sdl,16.28
2022-09-19T05:35:00,sdl,15.99
2022-09-19T05:36:00,sdl,16.01
2022-09-19T05:37:00,sdl,16.22
2022-09-19T05:38:00,sdl,15.37
2022-09-19T05:39:00,sdl,15.19
2022-09-19T05:40:00,sdl,15.24
2022-09-19T05:41:00,sdl,15.28
2022-09-19T05:42:00,sdl,15.22
2022-09-19T05:43:00,sdl,15.20
2022-09-19T05:44:00,sdl,15.23
2022-09-19T05:45:00,sdl,15.26
2022-09-19T05:46:00,sdl,15.49
2022-09-19T05:47:00,sdl,15.35
2022-09-19T05:48:00,sdl,15.37
2022-09-19T05:49:00,sdl,15.29
2022-09-19T05:50:00,sdl,15.32
2022-09-19T05:51:00,sdl,16.28
2022-09-19T05:52:00,sdl,16.33
2022-09-19T05:53:00,sdl,16.25
2022-09-19T05:54:00,sdl,16.44
2022-09-19T05:55:00,sdl,16.35
2022-09-19T05:56:00,sdl,16.35
2022-09-19T05:57:00,sdl,16.40
2022-09-19T05:58:00,sdl,15.99
2022-09-19T05:59:00,sdl,15.84
2022-09-19T06:00:00,sdl,15.61
2022-09-19T06:01:00,sdl,16.00
2022-09-19T06:02:00,sdl,15.84
2022-09-19T06:03:00,sdl,15.76
2022-09-19T06:04:00,sdl,15.28
2022-09-19T06:05:00,sdl,15.48
2022-09-19T06:06:00,sdl,15.48
2022-09-19T06:07:00,sdl,15.26
2022-09-19T06:08:00,sdl,15.21
2022-09-19T06:09:00,sdl,15.22
2022-09-19T06:10:00,sdl,16.05
2022-09-19T06:11:00,sdl,15.70
2022-09-19T06:12:00,sdl,15.92
2022-09-19T06:13:00,sdl,15.96
2022-09-19T06:14:00,sdl,15.87
2022-09-19T06:15:00,sdl,15.76
2022-09-19T06:16:00,sdl,14.97
2022-09-19T06:17:00,sdl,14.83
2022-09-19T06:18:00,sdl,14.93
2022-09-19T06:19:00,sdl,15.02
2022-09-19T06:20:00,sdl,14.98
2022-09-19T06:21:00,sdl,14.86
2022-09-19T06:22:00,sdl,14.88
2022-09-19T06:23:00,sdl,14.94
2022-09-19T06:24:00,sdl,14.72
2022-09-19T06:25:00,sdl,14.86
2022-09-19T06:26:00,sdl,14.78
2022-09-19T06:27:00,sdl,14.88
2022-09-19T06:28:00,sdl,15.27
2022-09-19T06:29:00,sdl,16.12
2022-09-19T06:30:00,sdl,16.29
2022-09-19T06:31:00,sdl,15.56
2022-09-19T06:32:00,sdl,15.77
2022-09-19T06:33:00,sdl,15.84
2022-09-19T06:34:00,sdl,15.95
2022-09-19T06:35:00,sdl,15.95
2022-09-19T06:36:00,sdl,14.90
2022-09-19T06:37:00,sdl,15.02
2022-09-19T06:38:00,sdl,14.82
2022-09-19T06:39:00,sdl,14.78
2022-09-19T06:40:00,sdl,14.80
2022-09-19T06:41:00,sdl,15.01
2022-09-19T06:42:00,sdl,15.04
2022-09-19T06:43:00,sdl,14.78
2022-09-19T06:44:00,sdl,14.91
2022-09-19T06:45:00,sdl,14.89
2022-09-19T06:46:00,sdl,14.82
2022-09-19T06:47:00,sdl,14.74
2022-09-19T06:48:00,sdl,16.72
2022-09-19T06:49:00,sdl,15.86
2022-09-19T06:50:00,sdl,15.79
2022-09-19T06:51:00,sdl,15.84
2022-09-19T06:52:00,sdl,15.92
2022-09-19T06:53:00,sdl,15.95
2022-09-19T06:54:00,sdl,15.08
2022-09-19T06:55:00,sdl,15.12
2022-09-19T06:56:00,sdl,15.06
2022-09-19T06:57:00,sdl,14.96
2022-09-19T06:58:00,sdl,15.00
2022-09-19T06:59:00,sdl,15.26
2022-09-19T07:00:00,sdl,15.31
2022-09-19T07:01:00,sdl,15.35
2022-09-19T07:02:00,sdl,14.85
2022-09-19T07:03:00,sdl,15.11
2022-09-19T07:04:00,sdl,15.25
2022-09-19T07:05:00,sdl,15.33
2022-09-19T07:06:00,sdl,15.53
2022-09-19T07:07:00,sdl,12.31
2022-09-19T07:08:00,sdl,12.20
2022-09-19T07:09:00,sdl,10.74
2022-09-19T07:10:00,sdl,9.53
2022-09-19T07:11:00,sdl,9.19
2022-09-19T07:12:00,sdl,9.33
2022-09-19T07:13:00,sdl,7.67
2022-09-19T07:14:00,sdl,7.43
2022-09-19T07:15:00,sdl,7.31
2022-09-19T07:16:00,sdl,7.40
2022-09-19T07:17:00,sdl,7.49
2022-09-19T07:18:00,sdl,7.64
2022-09-19T07:19:00,sdl,7.60
2022-09-19T07:20:00,sdl,7.62
2022-09-19T07:21:00,sdl,7.59
2022-09-19T07:22:00,sdl,7.62
2022-09-19T07:23:00,sdl,7.63
2022-09-19T07:24:00,sdl,7.72
2022-09-19T07:25:00,sdl,8.94
2022-09-19T07:26:00,sdl,8.99
2022-09-19T07:27:00,sdl,9.17
2022-09-19T07:28:00,sdl,11.06
2022-09-19T07:29:00,sdl,11.65
2022-09-19T07:30:00,sdl,11.86
2022-09-19T07:31:00,sdl,10.60
2022-09-19T07:32:00,sdl,10.28
2022-09-19T07:33:00,sdl,13.82
2022-09-19T07:34:00,sdl,13.75
2022-09-19T07:35:00,sdl,14.61
2022-09-19T07:36:00,sdl,15.31
2022-09-19T07:37:00,sdl,14.91
2022-09-19T07:38:00,sdl,17.13
2022-09-19T07:39:00,sdl,17.15
2022-09-19T07:40:00,sdl,17.02
2022-09-19T07:41:00,sdl,17.09
2022-09-19T07:42:00,sdl,18.22
2022-09-19T07:43:00,sdl,18.10
2022-09-19T07:44:00,sdl,18.33
2022-09-19T07:45:00,sdl,15.95
2022-09-19T07:46:00,sdl,15.97
2022-09-19T07:47:00,sdl,15.90
2022-09-19T07:48:00,sdl,16.14
2022-09-19T07:49:00,sdl,15.35
2022-09-19T07:50:00,sdl,15.41
2022-09-19T07:51:00,sdl,15.33
2022-09-19T07:52:00,sdl,15.44
2022-09-19T07:53:00,sdl,17.82
2022-09-19T07:54:00,sdl,19.85
2022-09-19T07:55:00,sdl,17.83
2022-09-19T07:56:00,sdl,15.44
2022-09-19T07:57:00,sdl,15.34
2022-09-19T07:58:00,sdl,16.14
2022-09-19T07:59:00,sdl,15.68
2022-09-19T08:00:00,sdl,16.40
2022-09-19T08:01:00,sdl,16.44
2022-09-19T08:02:00,sdl,17.07
2022-09-19T08:03:00,sdl,16.31
2022-09-19T08:04:00,sdl,16.74
2022-09-19T08:05:00,sdl,18.93
2022-09-19T08:06:00,sdl,18.02
2022-09-19T08:07:00,sdl,17.50
2022-09-19T08:08:00,sdl,15.61
2022-09-19T08:09:00,sdl,15.58
2022-09-19T08:10:00,sdl,15.53
2022-09-19T08:11:00,sdl,15.17
2022-09-19T08:12:00,sdl,15.21
2022-09-19T08:13:00,sdl,15.38
2022-09-19T08:14:00,sdl,15.77
2022-09-19T08:15:00,sdl,14.96
2022-09-19T08:16:00,sdl,15.23
2022-09-19T08:17:00,sdl,17.31
2022-09-19T08:18:00,sdl,18.14
2022-09-19T08:19:00,sdl,17.96
2022-09-19T08:20:00,sdl,16.04
2022-09-19T08:21:00,sdl,15.76
2022-09-19T08:22:00,sdl,15.70
2022-09-19T08:23:00,sdl,15.62
2022-09-19T08:24:00,sdl,15.61
2022-09-19T08:25:00,sdl,14.81
2022-09-19T08:26:00,sdl,15.10
2022-09-19T08:27:00,sdl,14.55
2022-09-19T08:28:00,sdl,15.22
2022-09-19T08:29:00,sdl,16.97
2022-09-19T08:30:00,sdl,17.00
2022-09-19T08:31:00,sdl,19.05
2022-09-19T08:32:00,sdl,19.28
2022-09-19T08:33:00,sdl,19.25
2022-09-19T08:34:00,sdl,19.64
2022-09-19T08:35:00,sdl,19.09
2022-09-19T08:36:00,sdl,20.70
2022-09-19T08:37:00,sdl,20.63
2022-09-19T08:38:00,sdl,20.49
2022-09-19T08:39:00,sdl,20.55
2022-09-19T08:40:00,sdl,18.62
2022-09-19T08:41:00,sdl,18.85
2022-09-19T08:42:00,sdl,19.73
2022-09-19T08:43:00,sdl,18.87
2022-09-19T08:44:00,sdl,19.18
2022-09-19T08:45:00,sdl,19.37
2022-09-19T08:46:00,sdl,18.58
2022-09-19T08:47:00,sdl,19.86
2022-09-19T08:48:00,sdl,19.38
2022-09-19T08:49:00,sdl,20.15
2022-09-19T08:50:00,sdl,19.62
2022-09-19T08:51:00,sdl,19.66
2022-09-19T08:52:00,sdl,19.44
2022-09-19T08:53:00,sdl,19.35
2022-09-19T08:54:00,sdl,20.51
2022-09-19T08:55:00,sdl,19.50
2022-09-19T08:56:00,sdl,19.91
2022-09-19T08:57:00,sdl,20.35
2022-09-19T08:58:00,sdl,20.56
2022-09-19T08:59:00,sdl,20.71
2022-09-19T09:00:00,sdl,20.83
2022-09-19T09:01:00,sdl,12.43
2022-09-19T09:02:00,sdl,12.39
2022-09-19T09:03:00,sdl,11.31
2022-09-19T09:04:00,sdl,10.53
2022-09-19T09:05:00,sdl,11.31
2022-09-19T09:06:00,sdl,11.27
2022-09-19T09:07:00,sdl,11.19
2022-09-19T09:08:00,sdl,11.24
2022-09-19T09:09:00,sdl,15.40
2022-09-19T09:10:00,sdl,15.50
2022-09-19T09:11:00,sdl,16.64
2022-09-19T09:12:00,sdl,16.96
2022-09-19T09:13:00,sdl,16.76
2022-09-19T09:14:00,sdl,16.81
2022-09-19T09:15:00,sdl,18.96
2022-09-19T09:16:00,sdl,18.79
2022-09-19T09:17:00,sdl,18.64
2022-09-19T09:18:00,sdl,18.00
2022-09-19T09:19:00,sdl,18.08
2022-09-19T09:20:00,sdl,17.95
2022-09-19T09:21:00,sdl,17.86
2022-09-19T09:22:00,sdl,17.70
2022-09-19T09:23:00,sdl,17.83
2022-09-19T09:24:00,sdl,18.07
2022-09-19T09:25:00,sdl,15.88
2022-09-19T09:26:00,sdl,15.82
2022-09-19T09:27:00,sdl,15.60
2022-09-19T09:28:00,sdl,15.83
2022-09-19T09:29:00,sdl,16.39
2022-09-19T09:30:00,sdl,16.37
2022-09-19T09:31:00,sdl,16.66
2022-09-19T09:32:00,sdl,16.71
2022-09-19T09:33:00,sdl,18.51
2022-09-19T09:34:00,sdl,18.44
2022-09-19T09:35:00,sdl,18.53
2022-09-19T09:36:00,sdl,17.58
2022-09-19T09:37:00,sdl,16.42
2022-09-19T09:38:00,sdl,17.62
2022-09-19T09:39:00,sdl,17.75
2022-09-19T09:40:00,sdl,17.80
2022-09-19T09:41:00,sdl,17.82
2022-09-19T09:42:00,sdl,17.78
2022-09-19T09:43:00,sdl,17.76
2022-09-19T09:44:00,sdl,17.80
2022-09-19T09:45:00,sdl,17.85
2022-09-19T09:46:00,sdl,18.39
2022-09-19T09:47:00,sdl,18.84
2022-09-19T09:48:00,sdl,18.71
2022-09-19T09:49:00,sdl,18.62
2022-09-19T09:50:00,sdl,18.84
2022-09-19T09:51:00,sdl,19.01
2022-09-19T09:52:00,sdl,18.77
2022-09-19T09:53:00,sdl,18.73
2022-09-19T09:54:00,sdl,18.01
2022-09-19T09:55:00,sdl,16.56
2022-09-19T09:56:00,sdl,17.89
2022-09-19T09:57:00,sdl,18.02
2022-09-19T09:58:00,sdl,16.91
2022-09-19T09:59:00,sdl,18.02
2022-09-19T10:00:00,sdl,18.12
2022-09-19T10:01:00,sdl,18.57
2022-09-19T10:02:00,sdl,18.57
2022-09-19T10:03:00,sdl,20.18
2022-09-19T10:04:00,sdl,20.15
2022-09-19T10:05:00,sdl,21.16
2022-09-19T10:06:00,sdl,21.56
2022-09-19T10:07:00,sdl,19.13
2022-09-19T10:08:00,sdl,19.77
2022-09-19T10:09:00,sdl,19.33
2022-09-19T10:10:00,sdl,19.09
2022-09-19T10:11:00,sdl,19.05
2022-09-19T10:12:00,sdl,12.07
2022-09-19T10:13:00,sdl,7.34
2022-09-19T10:14:00,sdl,7.38
2022-09-19T10:15:00,sdl,7.46
2022-09-19T10:16:00,sdl,7.61
2022-09-19T10:17:00,sdl,7.52
2022-09-19T10:18:00,sdl,9.03
2022-09-19T10:19:00,sdl,9.19
2022-09-19T10:20:00,sdl,9.79
2022-09-19T10:21:00,sdl,10.24
2022-09-19T10:22:00,sdl,10.32
2022-09-19T10:23:00,sdl,10.35
2022-09-19T10:24:00,sdl,9.68
2022-09-19T10:25:00,sdl,9.31
2022-09-19T10:26:00,sdl,10.07
2022-09-19T10:27:00,sdl,9.57
2022-09-19T10:28:00,sdl,9.19
2022-09-19T10:29:00,sdl,7.44
2022-09-19T10:30:00,sdl,7.36
2022-09-19T10:31:00,sdl,7.80
2022-09-19T10:32:00,sdl,7.93
2022-09-19T10:33:00,sdl,7.27
2022-09-19T10:34:00,sdl,7.39
2022-09-19T10:35:00,sdl,8.82
2022-09-19T10:36:00,sdl,9.52
2022-09-19T10:37:00,sdl,10.90
2022-09-19T10:38:00,sdl,11.32
2022-09-19T10:39:00,sdl,11.52
2022-09-19T10:40:00,sdl,16.24
2022-09-19T10:41:00,sdl,16.61
2022-09-19T10:42:00,sdl,16.32
2022-09-19T10:43:00,sdl,14.99
2022-09-19T10:44:00,sdl,15.66
2022-09-19T10:45:00,sdl,17.84
2022-09-19T10:46:00,sdl,18.87
2022-09-19T10:47:00,sdl,18.25
2022-09-19T10:48:00,sdl,19.51
2022-09-19T10:49:00,sdl,18.48
2022-09-19T10:50:00,sdl,19.10
2022-09-19T10:51:00,sdl,19.85
2022-09-19T10:52:00,sdl,19.66
2022-09-19T10:53:00,sdl,19.40
2022-09-19T10:54:00,sdl,19.48
2022-09-19T10:55:00,sdl,18.67
2022-09-19T10:56:00,sdl,18.79
2022-09-19T10:57:00,sdl,18.68
2022-09-19T10:58:00,sdl,21.07
2022-09-19T10:59:00,sdl,21.13
2022-09-19T11:00:00,sdl,21.47
2022-09-19T11:01:00,sdl,21.57
2022-09-19T11:02:00,sdl,20.84
2022-09-19T11:03:00,sdl,21.91
2022-09-19T11:04:00,sdl,22.19
2022-09-19T11:05:00,sdl,22.34
2022-09-19T11:06:00,sdl,21.78
2022-09-19T11:07:00,sdl,17.53
2022-09-19T11:08:00,sdl,18.33
2022-09-19T11:09:00,sdl,17.42
2022-09-19T11:10:00,sdl,17.29
2022-09-19T11:11:00,sdl,17.59
2022-09-19T11:12:00,sdl,17.67
2022-09-19T11:13:00,sdl,17.75
2022-09-19T11:14:00,sdl,17.70
2022-09-19T11:15:00,sdl,17.67
2022-09-19T11:16:00,sdl,19.68
2022-09-19T11:17:00,sdl,19.75
2022-09-19T11:18:00,sdl,20.07
2022-09-19T11:19:00,sdl,20.19
2022-09-19T11:20:00,sdl,20.06
2022-09-19T11:21:00,sdl,19.89
2022-09-19T11:22:00,sdl,19.89
2022-09-19T11:23:00,sdl,18.15
2022-09-19T11:24:00,sdl,17.35
2022-09-19T11:25:00,sdl,17.47
2022-09-19T11:26:00,sdl,17.35
2022-09-19T11:27:00,sdl,17.90
2022-09-19T11:28:00,sdl,17.81
2022-09-19T11:29:00,sdl,17.64
2022-09-19T11:30:00,sdl,17.99
2022-09-19T11:31:00,sdl,18.94
2022-09-19T11:32:00,sdl,21.23
2022-09-19T11:33:00,sdl,20.62
2022-09-19T11:34:00,sdl,20.57
2022-09-19T11:35:00,sdl,20.67
2022-09-19T11:36:00,sdl,20.14
2022-09-19T11:37:00,sdl,21.71
2022-09-19T11:38:00,sdl,22.07
2022-09-19T11:39:00,sdl,22.56
2022-09-19T11:40:00,sdl,22.11
2022-09-19T11:41:00,sdl,22.30
2022-09-19T11:42:00,sdl,23.01
2022-09-19T11:43:00,sdl,22.08
2022-09-19T11:44:00,sdl,22.13
2022-09-19T11:45:00,sdl,22.21
2022-09-19T11:46:00,sdl,25.73
2022-09-19T11:47:00,sdl,25.86
2022-09-19T11:48:00,sdl,25.87
2022-09-19T11:49:00,sdl,25.80
2022-09-19T11:50:00,sdl,25.82
2022-09-19T11:51:00,sdl,25.91
2022-09-19T11:52:00,sdl,25.77
2022-09-19T11:53:00,sdl,25.73
2022-09-19T11:54:00,sdl,25.37
2022-09-19T11:55:00,sdl,25.31
2022-09-19T11:56:00,sdl,25.26
2022-09-19T11:57:00,sdl,25.13
2022-09-19T11:58:00,sdl,25.54
2022-09-19T11:59:00,sdl,25.95
2022-09-19T12:00:00,sdl,26.07
2022-09-19T12:01:00,sdl,26.14
2022-09-19T12:02:00,sdl,26.15
2022-09-19T12:03:00,sdl,26.11
2022-09-19T12:04:00,sdl,26.24
2022-09-19T12:05:00,sdl,25.85
2022-09-19T12:06:00,sdl,26.08
2022-09-19T12:07:00,sdl,25.56
2022-09-19T12:08:00,sdl,25.61
2022-09-19T12:09:00,sdl,25.67
2022-09-19T12:10:00,sdl,25.60
2022-09-19T12:11:00,sdl,25.61
2022-09-19T12:12:00,sdl,21.09
2022-09-19T12:13:00,sdl,21.29
2022-09-19T12:14:00,sdl,21.02
2022-09-19T12:15:00,sdl,20.95
2022-09-19T12:16:00,sdl,21.41
2022-09-19T12:17:00,sdl,21.48
2022-09-19T12:18:00,sdl,21.41
2022-09-19T12:19:00,sdl,22.48
2022-09-19T12:20:00,sdl,22.61
2022-09-19T12:21:00,sdl,22.20
2022-09-19T12:22:00,sdl,22.71
2022-09-19T12:23:00,sdl,22.63
2022-09-19T12:24:00,sdl,22.73
2022-09-19T12:25:00,sdl,22.69
2022-09-19T12:26:00,sdl,21.36
2022-09-19T12:27:00,sdl,21.33
2022-09-19T12:28:00,sdl,22.28
2022-09-19T12:29:00,sdl,23.80
2022-09-19T12:30:00,sdl,25.24
2022-09-19T12:31:00,sdl,24.04
2022-09-19T12:32:00,sdl,24.11
2022-09-19T12:33:00,sdl,24.15
2022-09-19T12:34:00,sdl,24.24
2022-09-19T12:35:00,sdl,24.21
2022-09-19T12:36:00,sdl,24.58
2022-09-19T12:37:00,sdl,24.62
2022-09-19T12:38:00,sdl,24.72
2022-09-19T12:39:00,sdl,24.66
2022-09-19T12:40:00,sdl,26.03
2022-09-19T12:41:00,sdl,26.07
2022-09-19T12:42:00,sdl,26.02
2022-09-19T12:43:00,sdl,26.03
2022-09-19T12:44:00,sdl,26.05
2022-09-19T12:45:00,sdl,26.08
2022-09-19T12:46:00,sdl,25.58
2022-09-19T12:47:00,sdl,25.54
2022-09-19T12:48:00,sdl,25.45
2022-09-19T12:49:00,sdl,25.35
2022-09-19T12:50:00,sdl,25.63
2022-09-19T12:51:00,sdl,25.49
2022-09-19T12:52:00,sdl,21.71
2022-09-19T12:53:00,sdl,22.61
2022-09-19T12:54:00,sdl,22.93
2022-09-19T12:55:00,sdl,22.82
2022-09-19T12:56:00,sdl,24.71
2022-09-19T12:57:00,sdl,24.71
2022-09-19T12:58:00,sdl,23.98
2022-09-19T12:59:00,sdl,24.00
2022-09-19T13:00:00,sdl,24.07
2022-09-19T13:01:00,sdl,24.62
2022-09-19T13:02:00,sdl,24.07
2022-09-19T13:03:00,sdl,23.33
2022-09-19T13:04:00,sdl,23.62
2022-09-19T13:05:00,sdl,23.61
2022-09-19T13:06:00,sdl,20.68
2022-09-19T13:07:00,sdl,20.63
2022-09-19T13:08:00,sdl,21.93
2022-09-19T13:09:00,sdl,22.01
2022-09-19T13:10:00,sdl,23.06
2022-09-19T13:11:00,sdl,21.50
2022-09-19T13:12:00,sdl,21.11
2022-09-19T13:13:00,sdl,21.67
2022-09-19T13:14:00,sdl,21.93
2022-09-19T13:15:00,sdl,21.89
2022-09-19T13:16:00,sdl,25.68
2022-09-19T13:17:00,sdl,25.63
2022-09-19T13:18:00,sdl,25.89
2022-09-19T13:19:00,sdl,25.92
2022-09-19T13:20:00,sdl,25.36
2022-09-19T13:21:00,sdl,25.33
2022-09-19T13:22:00,sdl,25.36
2022-09-19T13:23:00,sdl,25.43